This is the latest recevied weather packets stored in our database for station/object W8CEN. If no packets are shown the sender has not sent any weather packets the latest 10 day(s).
| Time | Temp. | Humidity | Pressure | Rain* | Wind** | Luminosity | Snow |
|---|---|---|---|---|---|---|---|
| 1777353447 | 17.22° C | 92% | 988.5 hPa | 3.05 mm | - | 0 W/m² | - |
| 1777353145 | 17.22° C | 91% | 988.5 hPa | 3.05 mm | - | 0 W/m² | - |
| 1777352843 | 17.22° C | 90% | 988.3 hPa | 3.56 mm | - | 0 W/m² | - |
| 1777352541 | 17.78° C | 89% | 988.7 hPa | 0 mm | - | 0 W/m² | - |
| 1777352239 | 17.78° C | 88% | 988.4 hPa | 0 mm | - | 0 W/m² | - |
| 1777351633 | 17.78° C | 88% | 988.5 hPa | 1.27 mm | - | 0 W/m² | - |
| 1777351025 | 17.78° C | 86% | 988.6 hPa | 0 mm | - | 0 W/m² | - |
| 1777350722 | 18.33° C | 84% | 988.8 hPa | 1.78 mm | - | 0 W/m² | - |
| 1777350417 | 18.89° C | 81% | 988.5 hPa | 1.78 mm | - | 0 W/m² | - |
| 1777350115 | 18.89° C | 78% | 988.6 hPa | 0 mm | - | 0 W/m² | - |
| 1777349812 | 18.89° C | 75% | 988.3 hPa | 0 mm | - | 0 W/m² | - |
| 1777349509 | 19.44° C | 74% | 988.3 hPa | 0 mm | - | 0 W/m² | - |
| 1777349208 | 19.44° C | 73% | 988 hPa | 0 mm | - | 0 W/m² | - |
| 1777348904 | 19.44° C | 73% | 987.6 hPa | 0 mm | - | 0 W/m² | - |
| 1777348602 | 18.89° C | 74% | 987.1 hPa | 0 mm | - | 0 W/m² | - |
| 1777348300 | 19.44° C | 74% | 986.7 hPa | 0 mm | - | 0 W/m² | - |
| 1777347997 | 18.89° C | 74% | 986.2 hPa | 0 mm | - | 0 W/m² | - |
| 1777347696 | 18.89° C | 74% | 986.2 hPa | 0 mm | - | 0 W/m² | - |
| 1777347392 | 18.89° C | 74% | 986.1 hPa | 0 mm | - | 0 W/m² | - |
| 1777347087 | 18.89° C | 74% | 985.9 hPa | 0 mm | - | 0 W/m² | - |
| 1777346784 | 18.89° C | 74% | 986.1 hPa | 0 mm | - | 0 W/m² | - |
| 1777346480 | 18.89° C | 75% | 986.2 hPa | 0 mm | - | 0 W/m² | - |
| 1777346177 | 18.89° C | 75% | 986.4 hPa | 0 mm | - | 0 W/m² | - |
| 1777345874 | 18.89° C | 76% | 986.4 hPa | 0 mm | - | 0 W/m² | - |
| 1777345572 | 18.89° C | 75% | 986.6 hPa | 0 mm | - | 0 W/m² | - |
* Rain latest hour (hover to see other rain measurements)
** Current wind speed in m/s (hover to see current wind gust speed)